{"data":{"norad_id":61514,"epoch":"2026-09-20T20:26:49.140096Z","epoch_age_seconds":161718,"freshness":"FRESH","line1":"1 61514U 24183F   26263.85195764  .00001550  00000+0  57014-4 0  9990","line2":"2 61514  53.1610 313.7361 0000991  89.3347 270.7769 15.34384714109561","mean_motion":15.34384714,"eccentricity":9.91e-5,"inclination_deg":53.161,"raan_deg":313.7361,"arg_perigee_deg":89.3347,"mean_anomaly_deg":270.7769,"bstar":5.7014e-5,"rev_number":10956,"period_min":93.848693020804,"perigee_km":462.07074202739,"apogee_km":463.42660556794,"semimajor_km":6840.8856737977,"source":"CELESTRAK","updated_at":"2026-09-22T09:00:49.355251Z"}}